Location: Dittelbrunn
(50.0738°N, 10.2196°E)
Time: 01:24:47
(UTC+00:00)

SJ-6B - Pass Details

Date: 18 September 2020
Orbit: 511 x 580 km, 97.6° (Epoch: 30 October)

Event Time Altitude Azimuth Distance (km) Brightness Sun altitude
Exits shadow 19:22:17 17° 188° (S) 1,354 4.6 -18.9°
Maximum altitude 19:24:59 51° 260° (W) 655 3.4 -19.3°
Drops below altitude 10° 19:28:40 10° 337° (NNW) 1,756 6.1 -19.8°
Sets 19:30:50 0° 343° (NNW) 2,656 7.0 -20.1°
